Location: Florence
(33.9745°N, 118.2481°W)
Time: 20:10:32
(UTC+00:00)

IRS-P3 - Pass Details

Date: 23 March 2023
Orbit: 814 x 817 km, 99.0° (Epoch: 05 June)

Event Time Altitude Azimuth Distance (km) Brightness Sun altitude
Rises 12:00:30 0° 14° (NNE) 3,343 7.8 -23.7°
Reaches altitude 10° 12:02:51 10° 15° (NNE) 2,408 7.0 -23.2°
Maximum altitude 12:08:12 83° 102° (ESE) 825 4.1 -22.2°
Enters shadow 12:12:16 18° 191° (S) 1,917 5.8 -21.4°
